DW4678 Fairhaven MA US current weather conditions

sailwx.info

Wind from 193 at 19 knots

Air temperature 10.0° C
Dewpoint 7.8° C

Last reported at 2019-Dec-09 23:00 UTC.
Time now 2019-Dec-09 23:17 UTC

Location: N 41°35' W 070°50'.
View on Google Maps.

See reports from other nearby stations

  
Tides and Currents Weather Stations Pressure Air Temp Water Temp Dewpoint Dewpoint Depression Visibility Wind Speed Wind Dir Waves Ship Positions
date/time (UTC)wind fromknots sea level pressurealtimeterstation pressurevisibilityair tempwater tempwave heightnotes
2019-Dec-09 23:00 193 19 10.0
2019-Dec-09 22:45 197 21 10.6
2019-Dec-09 22:17 206 15 9.4
2019-Dec-09 22:01 199 15 10.0
2019-Dec-09 21:45 188 13 9.4
2019-Dec-09 21:30 185 15 8.9
2019-Dec-09 21:01 189 19 9.4
2019-Dec-09 20:46 192 19 10.0
2019-Dec-09 20:30 189 20 9.4
2019-Dec-09 20:15 182 18 9.4
2019-Dec-09 19:47 191 19 10.0
2019-Dec-09 19:31 166 17 10.0
2019-Dec-09 19:15 182 14 9.4
2019-Dec-09 18:46 190 16 9.4
2019-Dec-09 18:31 195 18 10.0
2019-Dec-09 18:16 194 19 10.0
2019-Dec-09 18:00 189 20 10.0
2019-Dec-09 17:16 193 20 9.4
2019-Dec-09 17:01 178 20 9.4
2019-Dec-09 16:45 185 16 9.4
2019-Dec-09 16:17 189 17 9.4
2019-Dec-09 16:01 196 17 9.4
2019-Dec-09 15:46 183 19 8.9
2019-Dec-09 15:30 181 19 9.4
2019-Dec-09 15:15 178 18 8.9
2019-Dec-09 14:46 170 14 8.9
2019-Dec-09 14:30 154 12 8.3
2019-Dec-09 14:15 162 12 8.3
2019-Dec-09 13:46 185 11 8.3
2019-Dec-09 13:32 195 12 8.3
2019-Dec-09 13:15 203 12 8.3
2019-Dec-09 13:00 204 14 8.3
2019-Dec-09 12:47 208 13 8.3
2019-Dec-09 12:32 196 13 8.3
2019-Dec-09 12:15 183 11 7.8
2019-Dec-09 12:00 178 8 7.8
2019-Dec-09 11:32 183 8 7.8
2019-Dec-09 11:17 188 8 7.8
2019-Dec-09 11:01 181 7 7.8
2019-Dec-09 10:45 183 9 7.8
2019-Dec-09 10:16 175 9 8.3
2019-Dec-09 10:01 187 4 7.2
2019-Dec-09 09:45 187 6 7.2
2019-Dec-09 09:17 193 8 7.2
2019-Dec-09 09:01 228 7 7.2
2019-Dec-09 08:45 217 9 7.2
2019-Dec-09 08:30 226 12 7.8
2019-Dec-09 08:02 234 13 7.2
2019-Dec-09 07:46 221 13 7.2
2019-Dec-09 07:31 215 12 7.2
2019-Dec-09 07:15 210 13 7.2
2019-Dec-09 06:46 208 13 7.2
2019-Dec-09 06:31 208 15 7.2
2019-Dec-09 06:15 214 14 7.2
2019-Dec-09 06:00 217 16 7.2
2019-Dec-09 05:47 226 18 7.2
2019-Dec-09 05:31 225 18 7.2
2019-Dec-09 05:16 226 19 7.2
2019-Dec-09 05:00 218 19 7.2
2019-Dec-09 04:31 224 21 7.2
2019-Dec-09 04:16 223 20 7.2
2019-Dec-09 04:01 229 20 6.7
2019-Dec-09 03:45 232 20 6.7
2019-Dec-09 03:30 232 19 6.7
2019-Dec-09 03:16 238 19 6.7
2019-Dec-09 03:01 232 18 6.7
2019-Dec-09 02:45 228 18 6.7
2019-Dec-09 02:30 235 17 6.7
2019-Dec-09 02:01 226 18 6.1
2019-Dec-09 01:46 218 19 6.1
2019-Dec-09 01:30 228 19 6.1
2019-Dec-09 01:15 222 19 6.1
2019-Dec-09 00:46 224 19 5.6
2019-Dec-09 00:31 221 19 5.6
2019-Dec-09 00:15 211 18 5.6
2019-Dec-08 23:46 212 17 5.0
2019-Dec-08 23:31 222 18 5.0
2019-Dec-08 23:15 222 17 5.0
2019-Dec-08 23:00 216 19 5.0
2019-Dec-08 22:32 220 18 4.4
2019-Dec-08 22:16 232 19 4.4
2019-Dec-08 22:00 216 19 3.9
2019-Dec-08 21:45 218 18 3.9
2019-Dec-08 21:31 226 19 3.9
2019-Dec-08 21:16 221 19 3.9
2019-Dec-08 21:01 235 18 3.3
2019-Dec-08 20:46 233 19 3.3
2019-Dec-08 20:30 239 18 3.3
2019-Dec-08 20:01 238 18 2.8
2019-Dec-08 19:46 224 17 2.8
2019-Dec-08 19:30 233 15 2.8
2019-Dec-08 19:15 237 15 2.2
2019-Dec-08 18:47 231 13 2.2
2019-Dec-08 18:31 230 13 2.2
2019-Dec-08 18:15 228 13 1.7
2019-Dec-08 18:00 213 10 1.7
2019-Dec-08 17:47 214 11 1.7
2019-Dec-08 17:32 224 9 1.1
2019-Dec-08 17:16 211 6 1.1
2019-Dec-08 17:01 243 5 0.6
2019-Dec-08 16:45 206 6 0.6
2019-Dec-08 16:31 196 5 0.6
2019-Dec-08 16:16 175 5 0.6
2019-Dec-08 16:01 216 4 -0.0
2019-Dec-08 15:45 239 6 -0.6
2019-Dec-08 15:30 195 4 -0.6
2019-Dec-08 15:01 231 1 -1.7
2019-Dec-08 14:46 272 1 -1.7
2019-Dec-08 14:30 267 1 -2.2
2019-Dec-08 14:15 306 1 -2.8
2019-Dec-08 13:47 329 1 -3.3
2019-Dec-08 13:31 354 1 -3.9
2019-Dec-08 13:16 005 2 -4.4
2019-Dec-08 13:00 352 2 -5.0
2019-Dec-08 12:31 343 2 -5.6
2019-Dec-08 12:16 351 4 -5.6
2019-Dec-08 12:00 356 3 -5.6
2019-Dec-08 11:45 356 2 -6.1
2019-Dec-08 11:17 356 3 -5.6
2019-Dec-08 11:01 349 3 -5.6
2019-Dec-08 10:46 354 3 -5.6
2019-Dec-08 10:30 346 3 -5.6
2019-Dec-08 10:15 001 3 -5.0
2019-Dec-08 09:47 008 4 -5.0
2019-Dec-08 09:31 343 4 -5.0
2019-Dec-08 09:15 351 3 -5.0
2019-Dec-08 09:00 349 4 -4.4
2019-Dec-08 08:47 348 4 -4.4
2019-Dec-08 08:31 347 3 -4.4
2019-Dec-08 08:16 331 3 -4.4
2019-Dec-08 08:00 357 3 -4.4
2019-Dec-08 07:31 008 2 -3.9
2019-Dec-08 07:16 013 3 -3.9
2019-Dec-08 07:01 346 4 -3.9
2019-Dec-08 06:45 007 4 -3.9
2019-Dec-08 06:30 357 4 -3.9
2019-Dec-08 06:01 330 4 -3.3
2019-Dec-08 05:46 357 4 -3.9
2019-Dec-08 05:30 002 4 -3.3
2019-Dec-08 05:15 359 4 -3.3
2019-Dec-08 05:01 351 4 -3.3
2019-Dec-08 04:46 332 4 -3.3
2019-Dec-08 04:30 003 4 -3.3
2019-Dec-08 04:15 345 5 -2.8
2019-Dec-08 04:00 033 4 -2.8
2019-Dec-08 03:30 350 3 -2.8
2019-Dec-08 03:16 359 3 -2.8
2019-Dec-08 03:00 354 5 -2.8
2019-Dec-08 02:45 005 4 -2.8
2019-Dec-08 02:16 002 4 -2.2
2019-Dec-08 02:02 359 6 -2.2
2019-Dec-08 01:45 329 4 -2.2
2019-Dec-08 01:16 331 5 -1.7
2019-Dec-08 01:01 352 5 -1.7
2019-Dec-08 00:46 329 7 -1.7
2019-Dec-08 00:30 344 7 -1.1
2019-Dec-08 00:02 349 4 -1.1
2019-Dec-07 23:47 341 5 -1.1
2019-Dec-07 23:31 331 3 -1.1
2019-Dec-07 23:15 358 3 -1.1
2019-Dec-07 23:00 005 6 -0.6